Погода в Подвалье

Россия / Самарская область     53°41′00″N   48°50′05″E
темп.,
°C
ветер,
м/с
пор.,
м/с
влажн.,
%
обл.,
%
осадки,
мм/ч
давл.,
гПа
погр.,
м
6 марта, сб
сб601:00−11з35920 0.0 101266
04:00−11з510932 0.0 1013168
07:00−11з48921 0.0 1014140
10:00−9зсз48901 0.0 1015262
13:00−6ссз347438 0.0 1015610
16:00−6в117569 0.0 1014293
19:00−13ююв1191100 0.0 101421
22:00−14юз129183 0.0 101421
7 марта, вс
вс701:00−14зюз229081 0.0 101320
04:00−14з229470 0.0 101320
07:00−15з229566 0.0 101320
10:00−11зюз359233 0.0 1013181
13:00−7зюз478837 0.0 1011510
16:00−6юз688159 0.1 10091038
19:00−8ююз71486100 0.0 1007622
22:00−7ююз91693100 0.8 1004957
8 марта, пн
пн801:00−5ююз101693100 0.8 9991047
04:00−4юз91693100 1.6 998934
07:00−10зюз5118033 0.4 999193
10:00−8юз6127517 0.4 1001434
13:00−4юз812730 0.0 1000944
16:00−3юз8148417 0.1 10001357
19:00−6зсз71478100 1.4 1000677
22:00−10з6128757 1.4 1003262
9 марта, вт
вт901:00−12з510930 0.0 1005189
04:00−14з510930 0.0 1007173
07:00−15з59940 0.0 1008165
10:00−12зсз58890 0.0 1010392
13:00−10зсз468544 0.0 1011681
16:00−10зсз468473 0.0 1012692
19:00−15сз339189 0.0 101327
22:00−18зсз339459 0.0 101536
10 марта, ср
ср1001:00−20зсз339530 0.0 101529
04:00−22зсз339548 0.0 101627
07:00−24зсз33970 0.0 101626
10:00−19сз37929 0.0 1017325
13:00−16сз468686 0.0 1018635
16:00−16ссз578693 0.1 1019700
19:00−20сз3495100 0.0 102078
22:00−23сз349699 0.1 102255